Regional Weather Roundup
Issued by NWS

Home | Current Version | Previous Version | Graphics & Text | Print | Product List | Glossary On
Versions: 1 2 3 4 5 6 7 8 9 10 11 12 13 14 15 16 17 18 19 20 21 22 23 24 25 26 27 28 29 30 31 32 33 34 35 36 37 38 39 40 41 42 43 44 45 46 47 48 49 50
349
ASUS43 KOAX 230602
RWRNE

WEATHER ROUNDUP FOR NEBRASKA
NATIONAL WEATHER SERVICE OMAHA NE
1200 AM CST FRI FEB 23 2018

NOTES: SATELLITE DATA IS BEING USED TO AUGMENT CLOUD COVER ABOVE
       12000 FEET.
       "FAIR" INDICATES FEW OR NO CLOUDS BELOW 12,000 FEET WITH NO
       SIGNIFICANT WEATHER AND/OR OBSTRUCTIONS TO VISIBILITY.


NEZ001>004-019>022-054>056-230700-
NEBRASKA PANHANDLE

CITY           SKY/WX    TMP DP  RH WIND       PRES   REMARKS
SCOTTSBLUFF    CLEAR      5   3  91 NW7       30.07R WCI  -7
6HR MIN TEMP:   4; 6HR MAX TEMP:  24;

ALLIANCE       CLEAR     -1  -3  91 W8        30.05S WCI -15
6HR MIN TEMP:  -1; 6HR MAX TEMP:  21;

CHADRON        PTCLDY    -3  -7  82 W6        30.12R WCI -15
6HR MIN TEMP:  -3; 6HR MAX TEMP:  20;

GORDON         FOG       12   9  87 CALM      30.06S VSB 1/2
6HR MIN TEMP:  10; 6HR MAX TEMP:  23;

KIMBALL        CLOUDY    16  12  86 W7        30.03R WCI   6
SIDNEY         CLOUDY    19  14  81 W8        30.06R WCI   9
6HR MIN TEMP:  15; 6HR MAX TEMP:  24;

$$

NEZ057>060-069>072-079>082-230700-
SOUTHWEST NEBRASKA

CITY           SKY/WX    TMP DP  RH WIND       PRES   REMARKS
NORTH PLATTE   HAZE      11   6  81 CALM      30.12R VSB 1/4
6HR MIN TEMP:   9; 6HR MAX TEMP:  24;

IMPERIAL       CLOUDY    19  18  95 SW7       30.11R WCI  10
6HR MIN TEMP:  18; 6HR MAX TEMP:  23;

LEXINGTON      CLEAR     15  12  89 W7        30.14R WCI   5
MCCOOK         CLOUDY    19  18  95 W6        30.15R WCI  11
6HR MIN TEMP:  19; 6HR MAX TEMP:  24;

OGALLALA       CLOUDY    15  14  92 SW5       30.11R WCI   8
$$

NEZ005>010-023>029-035>040-094-230700-
NORTH CENTRAL NEBRASKA

CITY           SKY/WX    TMP DP  RH WIND       PRES   REMARKS
VALENTINE      PTCLDY    13   9  84 NW8       30.09S WCI   2
6HR MIN TEMP:  10; 6HR MAX TEMP:  24;

AINSWORTH      CLEAR     15  13  95 W9        30.09S WCI   3
BROKEN BOW     CLEAR     14  12  92 CALM      30.11F
6HR MIN TEMP:  11; 6HR MAX TEMP:  24;

O`NEILL        CLEAR     17  17  98 W7        30.12F WCI   7
ORD            MOCLDY    20  18  92 W5        30.12F WCI  13
6HR MIN TEMP:  20; 6HR MAX TEMP:  23;

THEDFORD         N/A     13  11  91 W3        30.10S
$$

NEZ041-046>049-061>064-073>077-083>087-230700-
SOUTH CENTRAL NEBRASKA

CITY           SKY/WX    TMP DP  RH WIND       PRES   REMARKS
GRAND ISLAND   CLOUDY    26  24  92 W7        30.15F WCI  18
6HR MIN TEMP:  26; 6HR MAX TEMP:  26; 6HR PCP: TRACE;

AURORA         CLOUDY    26  25  96 CALM      30.15S
HASTINGS       CLOUDY    25  23  92 W8        30.15S WCI  16
6HR MIN TEMP:  24; 6HR MAX TEMP:  26;

HEBRON         CLOUDY    29  28  96 CALM      30.18R
HOLDREGE       CLOUDY    25  23  93 W5        30.15R WCI  19
KEARNEY        CLOUDY    24  21  88 W9        30.15S WCI  14
YORK           CLOUDY    27  27 100 NW5       30.16S WCI  21
$$

NEZ011>018-030>034-042>045-230700-
NORTHEAST NEBRASKA

CITY           SKY/WX    TMP DP  RH WIND       PRES   REMARKS
NORFOLK        CLOUDY    23  21  92 W7        30.13S WCI  15
6HR MIN TEMP:  23; 6HR MAX TEMP:  25; 6HR PCP:  0.12;

ALBION         CLOUDY    23  21  92 CALM      30.14R
BLAIR          CLOUDY    31  30  96 W6        30.15R FOG     WCI  25
COLUMBUS       CLOUDY    26  24  92 W5        30.17S WCI  20
FREMONT        CLOUDY    28  27  98 W6        30.17R WCI  21
TEKAMAH        CLOUDY    28  26  92 NW5       30.16F FOG     WCI  23
6HR MIN TEMP:  28; 6HR MAX TEMP:  29; 6HR PCP:  0.12;

WAYNE          CLOUDY    26  25  96 W6        30.14F WCI  19
$$

NEZ050>053-065>068-078-088>093-230700-
SOUTHEAST NEBRASKA

CITY           SKY/WX    TMP DP  RH WIND       PRES   REMARKS
LINCOLN        CLOUDY    30  27  88 NW6       30.19R WCI  24
6HR MIN TEMP:  29; 6HR MAX TEMP:  31; 6HR PCP:  0.06;

OMAHA EPPLEY   CLOUDY    31  30  96 W5        30.17S FOG     WCI  26
6HR MIN TEMP:  31; 6HR MAX TEMP:  32; 6HR PCP:  0.20;

BEATRICE       CLOUDY    32  31  96 W5        30.18R WCI  27
FALLS CITY     CLOUDY    32  32 100 SW5       30.18R FOG     WCI  27
6HR MIN TEMP:  31; 6HR MAX TEMP:  32; 6HR PCP:  0.16;

NEBRASKA CITY  CLOUDY    32  32 100 SW3       30.17R FOG
PLATTSMOUTH    CLOUDY    31  31  99 SW5       30.16S WCI  27
$$

NEZ044-045-051>053-067-230700-
OMAHA AREA

CITY           SKY/WX    TMP DP  RH WIND       PRES   REMARKS
OMAHA EPPLEY   CLOUDY    31  30  96 W5        30.17S FOG     WCI  26
6HR MIN TEMP:  31; 6HR MAX TEMP:  32; 6HR PCP:  0.20;

BLAIR          CLOUDY    31  30  96 W6        30.15R FOG     WCI  25
FREMONT        CLOUDY    28  27  98 W6        30.17R WCI  21
MILLARD        CLOUDY    32  31  94 W3        30.17R
OFFUTT AFB     CLOUDY    31  31  98 SW3       30.16S
PLATTSMOUTH    CLOUDY    31  31  99 SW5       30.16S WCI  27
WAHOO          CLOUDY    28  27  93 NW5       30.17S WCI  23
$$




USA.gov is the U.S. government's official web portal to all federal, state and local government web resources and services.